This is the latest recevied weather packets stored in our database for station/object N4YH-13. If no packets are shown the sender has not sent any weather packets the latest 10 day(s).
| Time | Temp. | Humidity | Pressure | Rain* | Wind** | Luminosity | Snow |
|---|---|---|---|---|---|---|---|
| 1777652284 | 15.56° C | 63% | 1012.9 hPa | 0 mm | - | - | - |
| 1777652164 | 15.56° C | 64% | 1013.2 hPa | 0 mm | - | - | - |
| 1777652043 | 15.56° C | 65% | 1013.3 hPa | 0 mm | - | - | - |
| 1777651924 | 15.56° C | 64% | 1013.2 hPa | 0 mm | - | - | - |
| 1777651804 | 15.56° C | 63% | 1013.2 hPa | 0 mm | - | - | - |
| 1777651684 | 15.56° C | 61% | 1013.2 hPa | 0 mm | - | - | - |
| 1777651563 | 15.56° C | 61% | 1013.2 hPa | 0 mm | - | - | - |
| 1777651444 | 15.56° C | 63% | 1013.3 hPa | 0 mm | - | - | - |
| 1777651324 | 15.56° C | 62% | 1013.5 hPa | 0 mm | - | - | - |
| 1777651204 | 16.11° C | 64% | 1013.5 hPa | 0 mm | - | - | - |
| 1777651083 | 15.56° C | 66% | 1013.4 hPa | 0 mm | - | - | - |
| 1777650964 | 15.56° C | 62% | 1013.3 hPa | 0 mm | - | - | - |
| 1777650844 | 15.56° C | 63% | 1013.3 hPa | 0 mm | - | - | - |
| 1777650723 | 15.56° C | 62% | 1013.3 hPa | 0 mm | - | - | - |
| 1777650603 | 15.56° C | 60% | 1013.3 hPa | 0 mm | - | - | - |
| 1777650484 | 15.56° C | 62% | 1013.3 hPa | 0 mm | - | - | - |
| 1777650364 | 15.56° C | 62% | 1013.2 hPa | 0 mm | - | - | - |
| 1777650243 | 15.56° C | 63% | 1013.3 hPa | 0 mm | - | - | - |
| 1777650123 | 15.56° C | 65% | 1013.2 hPa | 0 mm | - | - | - |
| 1777650004 | 15° C | 63% | 1013.2 hPa | 0 mm | - | - | - |
| 1777649884 | 15° C | 65% | 1013.2 hPa | 0 mm | - | - | - |
| 1777649763 | 15° C | 63% | 1013.2 hPa | 0 mm | - | - | - |
| 1777649643 | 15° C | 63% | 1013.2 hPa | 0 mm | - | - | - |
| 1777649524 | 15° C | 64% | 1013.4 hPa | 0 mm | - | - | - |
| 1777649404 | 14.44° C | 66% | 1013.3 hPa | 0 mm | - | - | - |
* Rain latest hour (hover to see other rain measurements)
** Current wind speed in m/s (hover to see current wind gust speed)